Location: Rowland
(34.5359°N, 79.2929°W)
Time: 13:45:59
(UTC+00:00)

Transit 4A - Pass Details

Date: 07 October 2022
Orbit: 871 x 972 km, 66.8° (Epoch: 29 November)

Event Time Altitude Azimuth Distance (km) Brightness Sun altitude
Rises 00:29:51 0° 160° (SSE) 3,618 - -20.5°
Reaches altitude 10° 00:33:25 10° 141° (SE) 2,660 - -21.2°
Maximum altitude 00:37:04 16° 104° (ESE) 2,216 - -21.9°
Drops below altitude 10° 00:40:41 10° 67° (ENE) 2,629 - -22.7°
Sets 00:44:09 0° 48° (NE) 3,555 - -23.4°
